Volver al catálogo

SCOUT X-4 R/B

ActivoUNKNOWN
NORAD 721·ROCKET BODY·🇺🇸 United States

Lanzado Dec 19, 1963 desde Vandenberg Space Force Base

Loading…

Próximos Pases (próximas 24 horas)

TLE

ActualizadoSource: Space-Track

Época: Sep 14, 2026, 18:13 UTC

1 00721U 63053B   26257.75917187  .00000295  00000-0  17437-3 0  9995
2 00721  78.6046  22.4502 1088059 226.2566 124.3321 12.55151042861296

Sigue SCOUT X-4 R/B en tiempo real con AllMySat

Download on the App Store